Location: Meanaryar
(48.4161°N, 4.7315°W)
Time: 07:03:57
(UTC+00:00)

Cosmos 1943 - Pass Details

Date: 18 September 2020
Orbit: 833 x 850 km, 71.0° (Epoch: 23 October)

Event Time Altitude Azimuth Distance (km) Brightness Sun altitude
Rises 19:44:20 0° 327° (NNW) 3,401 7.2 -13.8°
Reaches altitude 10° 19:46:52 10° 321° (NW) 2,465 6.5 -14.2°
Maximum altitude 19:52:12 44° 251° (WSW) 1,150 4.3 -15.1°
Drops below altitude 10° 19:57:31 10° 181° (S) 2,460 5.4 -15.9°
Sets 20:00:03 0° 175° (S) 3,393 6.1 -16.3°
